Terminal Aerodrome Forecast
Issued by NWS Charleston, WV

Current Version | Previous Version | Graphics & Text | Print | Product List | Glossary On
Versions: 1 2 3 4 5 6 7 8 9 10 11 12 13 14 15 16 17 18 19 20 21 22 23 24 25 26 27 28 29 30 31
000
FTUS41 KRLX 192100 AAA
TAFEKN
TAF AMD
KEKN 192106Z 1921/2018 16007KT P6SM SCT020 BKN045
      TEMPO 1921/1923 4SM -SHRA BKN020
     FM200700 00000KT 5SM BR OVC070
     FM200800 00000KT 2SM BR OVC045
     FM201300 00000KT P6SM BKN045=

USA.gov is the U.S. government's official web portal to all federal, state and local government web resources and services.